Hourly Data Report for October 05, 2014

All times are specified in Local Standard Time (LST). Add 1 hour to adjust for Daylight Saving Time where and when it is observed.

BAKER LAKE A
NUNAVUT

64°17'56.000" N
96°04'40.000" W
18.60 m
2300503
71926
YBK

Download Data

Hourly Data (October 2014)
Hourly Data Report for October 5, 2014
Temp Definition
°C
Dew Point Temp Definition
°C
Rel Hum Definition
%
Wind Dir Definition
10's deg

Wind Spd Definition
km/h
Visibility Definition
km
Stn Press Definition
kPa
Hmdx Definition


Wind Chill Definition


Weather Definition


TIME
00:00 Legend Double Dagger -4.7 -7.8 79 1 24 24.1 101.24   -12 Cloudy
01:00 Legend Double Dagger -4.7 -7.8 79 1 25 24.1 101.16   -12 LegendNANA
02:00 Legend Double Dagger -4.3 -7.8 77 2 28 24.1 101.18   -12 LegendNANA
03:00 Legend Double Dagger -4.3 -7.6 78 2 25 24.1 101.19   -11 Cloudy
04:00 Legend Double Dagger -4.2 -7.3 79 1 29 24.1 101.15   -12 LegendNANA
05:00 Legend Double Dagger -4.2 -7.3 79 2 24 24.1 101.16   -11 LegendNANA
06:00 Legend Double Dagger -4.0 -7.0 80 1 26 24.1 101.13   -11 Cloudy
07:00 Legend Double Dagger -3.9 -6.9 80 1 35 24.1 101.08   -12 LegendNANA
08:00 Legend Double Dagger -3.4 -6.0 82 1 35 24.1 101.02   -11 LegendNANA
09:00 Legend Double Dagger -2.9 -5.6 82 1 40 24.1 100.99   -11 Snow,Blowing Snow
10:00 Legend Double Dagger -3.0 -4.9 87 1 35 16.1 100.98   -11 Snow,Blowing Snow
11:00 Legend Double Dagger -2.5 -4.8 84 1 37 24.1 100.94   -10 Blowing Snow
12:00 Legend Double Dagger -1.8 -4.5 82 1 37 24.1 100.92   -10 Blowing Snow
13:00 Legend Double Dagger -1.3 -4.2 81 1 43 24.1 100.85   -9 Blowing Snow
14:00 Legend Double Dagger -0.9 -3.8 81 1 44 24.1 100.80   -9 Blowing Snow
15:00 Legend Double Dagger -0.6 -3.5 81 2 35 32.2 100.83   -8 Blowing Snow
16:00 Legend Double Dagger -0.8 -3.7 81 1 34 32.2 100.79   -8 Blowing Snow
17:00 Legend Double Dagger -0.8 -3.7 81 1 39 24.1 100.73   -8 Rain,Blowing Snow
18:00 Legend Double Dagger -1.0 -3.5 83 1 44 24.1 100.69   -9 Rain
19:00 Legend Double Dagger -0.9 -3.6 82 1 44 24.1 100.64   -9 LegendNANA
20:00 Legend Double Dagger -0.6 -2.7 86 2 39 24.1 100.59   -8 Rain,Freezing Rain,Snow
21:00 Legend Double Dagger -0.3 -2.2 87 2 49 24.1 100.49   -8 Freezing Rain,Snow
22:00 Legend Double Dagger 0.1 -1.7 88 2 49 16.1 100.43     Freezing Rain,Snow
23:00 Legend Double Dagger 0.3 -1.3 89 2 42 16.1 100.33     Freezing Rain,Snow

Notes on Data Quality.

Legend

  • E = Estimated
  • M = Missing
  • NA = Not Available
  • ‡ = Partner data that is not subject to review by the National Climate Archives
Date modified: